Regional Weather Roundup
Issued by NWS Glasgow, MT

Home | Current Version | Previous Version | Text Only | Print | Product List | Glossary On
Versions: 1 2 3 4 5 6 7 8 9 10 11 12 13 14 15 16 17 18 19 20 21 22 23 24 25 26 27 28 29 30 31 32 33 34 35 36 37 38 39 40 41 42 43 44 45 46 47 48 49 50
000
ASUS45 KGGW 220015
RWRGGW
HOURLY WEATHER ROUNDUP FOR NORTHEAST MONTANA
NATIONAL WEATHER SERVICE GLASGOW MONTANA
600 PM MDT TUE OCT 21 2014

NOTE: "FAIR" INDICATES FEW OR NO CLOUDS BELOW 12,000 FEET WITH NO
SIGNIFICANT WEATHER AND/OR OBSTRUCTIONS TO VISISBILITY.

NORTHEAST MONTANA


CITY           SKY/WX    TMP DP  RH WIND       PRES   REMARKS
GLASGOW        PTCLDY    63  42  46 N8        29.56F
6HR MIN TEMP:  63; 6HR MAX TEMP:  76;

PLENTYWOOD       N/A     66  40  38 S6          N/A
WOLF POINT     PTCLDY    67  49  52 CALM      29.57R
JORDAN           N/A     67  42  40 W7        29.62R
WINNETT          N/A     58  44  60 W12G20      N/A
SIDNEY         CLEAR     63  45  51 CALM      29.58F
GLENDIVE       CLEAR     64  43  45 S6        29.60F
MALTA            N/A     59  47  64 W12G20      N/A
SCOBEY           N/A     67  40  37 SW8       29.61R

FORT PECK REPORTS


CITY           SKY/WX    TMP DP  RH WIND       PRES   REMARKS
FORT PECK        N/A     68  44  42 N8          N/A
THE PINES        N/A     66  39  37 N3          N/A

SOUTHEAST MONTANA


CITY           SKY/WX    TMP DP  RH WIND       PRES   REMARKS
BILLINGS       CLOUDY    66  25  21 W25       29.72R
MILES CITY     LGT RAIN  68  42  38 W8        29.62R
BAKER          CLEAR     68  39  34 W6        29.63S
LIVINGSTON     CLOUDY    47  35  63 W43G55    29.84R

CENTRAL MONTANA


CITY           SKY/WX    TMP DP  RH WIND       PRES   REMARKS
HAVRE          LGT RAIN  52  48  86 W12       29.72S
LEWISTOWN      CLOUDY    50  42  74 W16       29.80R
GREAT FALLS    LGT RAIN  45  44  97 S13       29.83R
CUT BANK       CLOUDY    47  40  76 W16       29.77R
HELENA         CLOUDY    46  37  71 W13G25    29.91R
BUTTE          CLOUDY    39  35  86 SE3       29.98R
BOZEMAN        LGT RAIN  43  38  82 W15G26    29.97R

WESTERN MONTANA


CITY           SKY/WX    TMP DP  RH WIND       PRES   REMARKS
MISSOULA       MOCLDY    49  43  80 CALM      29.98R
KALISPELL      NOT AVBL

NORTH DAKOTA


CITY           SKY/WX    TMP DP  RH WIND       PRES   REMARKS
WILLISTON      CLEAR     71  42  35 CALM      29.57S
DICKINSON      CLEAR     65  46  50 SE9       29.60S
MINOT          CLEAR     63  43  48 E3        29.61F
BISMARCK       CLEAR     76  47  35 S16       29.66S

SOUTHERN SASKATCHEWAN


CITY           SKY/WX    TMP DP  RH WIND       PRES   REMARKS
REGINA         CLOUDY    61  46  59 SE10      29.57R
MOOSE JAW      MOCLDY    66  48  52 S6        29.55R
ESTEVAN        PTCLDY    61  43  51 SE12      29.59S
SWIFT CURRENT  MOCLDY    63  37  39 W14G20    29.58R




USA.gov is the U.S. government's official web portal to all federal, state and local government web resources and services.